Date,TemperatureHighF,TemperatureAvgF,TemperatureLowF,DewpointHighF,DewpointAvgF,DewpointLowF,HumidityHigh,HumidityAvg,HumidityLow,PressureMaxIn,PressureMinIn,WindSpeedMaxMPH,WindSpeedAvgMPH,GustSpeedMaxMPH,PrecipitationSumIn
2014-1-1,44.0,33.3,27.0,33.0,28.6,24.0,91,83,64,0.00,40.00,5,4,7,0.00
2014-1-2,54.0,38.5,26.0,34.0,29.4,25.0,94,73,37,0.00,40.00,23,6,32,0.00
2014-1-3,52.0,38.6,24.0,36.0,26.3,17.0,84,63,31,0.00,40.00,22,8,34,0.00
2014-1-4,36.0,24.9,17.0,24.0,17.4,-99.9,87,77,58,0.00,40.00,7,4,9,0.00
2014-1-5,38.0,26.1,17.0,20.0,16.0,12.0,81,67,41,0.00,40.00,6,4,9,0.00
2014-1-6,34.0,25.8,18.0,24.0,19.4,14.0,85,76,59,0.00,40.00,5,2,6,0.00
2014-1-7,44.0,32.9,28.0,33.0,28.8,24.0,96,85,63,0.00,40.00,4,2,8,0.00
2014-1-8,51.0,39.6,30.0,39.0,34.3,29.0,97,83,54,0.00,40.00,15,7,30,0.00
2014-1-9,47.0,40.0,33.0,34.0,31.8,29.0,88,73,59,0.00,40.00,20,11,30,0.00
2014-1-10,49.0,45.7,42.0,35.0,31.0,25.0,66,56,43,0.00,40.00,20,11,32,0.00
2014-1-11,54.0,42.3,36.0,37.0,31.5,-99.9,92,70,47,0.00,40.00,25,17,43,0.00
2014-1-12,48.0,41.5,35.0,37.0,32.6,27.0,84,70,62,0.00,40.00,20,11,28,0.01
2014-1-13,47.0,40.5,33.0,35.0,32.1,29.0,83,72,56,0.00,40.00,11,7,18,0.01
2014-1-14,47.0,35.8,28.0,35.0,29.9,26.0,93,79,57,0.00,40.00,5,3,7,0.00
2014-1-15,53.0,34.4,26.0,33.0,26.5,22.0,85,73,39,0.00,40.00,7,4,12,0.00
2014-1-16,45.0,32.3,24.0,28.0,24.0,19.0,83,72,50,0.00,40.00,6,4,8,0.00
2014-1-17,47.0,31.5,23.0,28.0,24.2,19.0,94,75,40,0.00,40.00,8,3,11,0.00
2014-1-18,32.0,24.9,22.0,32.0,22.1,-99.9,98,94,93,0.00,40.00,7,3,9,0.00
2014-1-19,44.0,28.9,19.0,35.0,25.7,17.0,98,88,57,0.00,40.00,6,3,10,0.00
2014-1-20,28.0,26.4,25.0,27.0,25.5,25.0,98,96,95,0.00,40.00,7,3,11,0.00
2014-1-21,28.0,26.5,26.0,27.0,25.7,25.0,97,96,95,0.00,40.00,4,2,7,0.00
2014-1-22,30.0,27.3,24.0,29.0,26.6,23.0,99,97,96,0.00,40.00,6,3,10,0.00
2014-2-11,43.0,39.7,38.0,35.0,32.6,30.0,83,76,69,0.00,40.00,14,9,22,0.00
2014-2-12,46.0,42.2,40.0,39.0,37.0,35.0,88,81,73,0.00,40.00,18,11,25,0.00
2014-2-13,48.0,43.6,38.0,40.0,31.8,27.0,80,63,45,0.00,40.00,12,8,21,0.00
2014-2-14,47.0,43.0,39.0,41.0,38.4,36.0,94,84,70,0.00,40.00,15,10,24,0.01
2014-2-15,45.0,38.6,35.0,41.0,34.0,-99.9,99,88,66,0.00,40.00,18,6,31,0.01
2014-2-16,46.0,40.3,34.0,29.0,26.4,23.0,83,58,45,0.00,40.00,26,15,39,0.01
2014-2-17,49.0,42.7,36.0,35.0,30.8,25.0,87,64,46,0.00,40.00,21,14,37,0.00
2014-2-18,56.0,42.8,34.0,38.0,32.3,25.0,85,67,42,0.00,40.00,23,13,41,0.00
2014-2-19,43.0,35.4,30.0,28.0,25.2,22.0,89,67,44,0.00,40.00,14,9,25,0.00
2014-2-20,50.0,40.3,35.0,34.0,29.8,26.0,84,66,47,0.00,40.00,15,9,24,0.00
2014-2-21,49.0,38.9,31.0,33.0,29.3,25.0,89,70,40,0.00,40.00,11,4,16,0.00
2014-2-22,51.0,37.5,26.0,34.0,28.7,23.0,91,73,40,0.00,40.00,8,3,14,0.00
2014-2-23,55.0,42.7,31.0,36.0,30.1,23.0,83,64,28,0.00,40.00,20,7,30,0.00
2014-2-24,39.0,36.2,32.0,37.0,34.2,31.0,98,92,84,0.00,40.00,7,4,11,0.00
2014-2-25,31.0,29.6,28.0,31.0,28.3,26.0,98,94,88,0.00,40.00,9,6,14,0.00
2014-2-26,32.0,29.7,28.0,28.0,26.6,25.0,94,88,81,0.00,40.00,5,3,7,0.00
2014-2-27,38.0,33.2,30.0,36.0,31.3,27.0,98,93,89,0.00,40.00,3,2,5,0.00
2014-2-28,32.0,30.4,29.0,32.0,30.3,29.0,99,99,99,0.00,40.00,5,2,8,0.00
2014-3-1,-200.0,0.0,200.0,-99.9,-99.9,-99.9,0,0,100,0.00,40.00,4,4,7,0.00
2014-3-6,51.0,44.9,38.0,37.0,35.2,33.0,85,68,50,0.00,40.00,23,12,47,0.01
2014-3-7,57.0,45.2,36.0,38.0,34.1,31.0,86,67,36,0.00,40.00,9,4,13,0.01
2014-3-8,61.0,48.1,33.0,44.0,32.7,-99.9,91,60,36,0.00,40.00,17,9,25,0.00
2014-3-9,60.0,54.3,50.0,48.0,46.5,44.0,92,75,60,0.00,40.00,15,8,23,0.00
2014-3-11,33.0,33.0,33.0,28.0,28.0,28.0,80,80,80,0.00,40.00,1,1,3,0.00
2014-3-12,29.0,29.0,29.0,26.0,26.0,26.0,87,87,87,0.00,40.00,4,4,5,0.00
2014-3-14,58.0,50.0,40.0,35.0,30.0,26.0,71,47,32,0.00,40.00,19,10,29,0.00
2014-3-15,68.0,47.5,32.0,34.0,24.5,-99.9,77,49,13,0.00,40.00,19,7,29,0.00
2014-3-16,64.0,52.7,40.0,40.0,30.5,19.0,74,47,17,0.00,40.00,24,13,40,0.00
2014-3-17,44.0,38.9,33.0,35.0,24.5,18.0,86,58,37,0.00,40.00,22,16,34,0.00
2014-3-18,50.0,35.4,25.0,26.0,23.6,21.0,84,63,37,0.00,40.00,12,5,20,0.00
2014-3-19,56.0,49.8,40.0,30.0,27.0,24.0,64,42,32,0.00,40.00,19,10,29,0.00
2014-3-20,46.0,37.6,31.0,30.0,21.2,16.0,73,53,29,0.00,40.00,13,7,19,0.00
2014-3-21,37.0,27.5,22.0,24.0,20.2,18.0,82,74,59,0.00,40.00,5,3,9,0.00
2014-3-24,63.0,52.1,40.0,34.0,29.6,25.0,65,43,28,0.00,40.00,9,5,14,0.00
2014-3-25,57.0,41.1,36.0,35.0,31.7,30.0,79,70,42,0.00,40.00,13,5,21,0.00
2014-3-26,49.0,45.8,40.0,34.0,33.5,33.0,77,62,52,0.00,40.00,11,8,17,0.00
2014-4-1,41.0,38.7,39.0,37.0,30.8,-99.9,88,79,76,0.00,40.00,9,7,14,0.00
2014-4-2,55.0,41.3,29.0,36.0,30.4,26.0,96,69,37,0.00,40.00,13,5,18,0.00
2014-4-3,55.0,43.6,31.0,35.0,29.1,22.0,88,60,27,0.00,40.00,10,5,16,0.00
2014-4-4,56.0,46.1,38.0,35.0,30.3,23.0,76,56,28,0.00,40.00,14,8,27,0.00
2014-4-5,56.0,46.2,39.0,37.0,32.7,-99.9,81,63,42,0.00,40.00,16,9,25,0.00
2014-4-6,63.0,53.2,44.0,40.0,37.1,33.0,70,56,33,0.00,40.00,16,8,22,0.00
2014-4-7,73.0,53.2,34.0,43.0,36.7,32.0,90,58,27,0.00,40.00,6,4,12,0.00
2014-4-8,73.0,55.6,40.0,44.0,36.6,30.0,86,54,22,0.00,40.00,18,5,27,0.00
2014-4-9,61.0,51.6,44.0,43.0,31.6,17.0,79,50,26,0.00,40.00,14,7,20,0.00
2014-4-10,53.0,38.2,30.0,25.0,19.7,15.0,62,48,32,0.00,40.00,5,3,8,0.00
2014-4-15,53.0,53.0,53.0,28.0,28.0,28.0,37,37,37,0.00,40.00,0,0,0,0.00
2014-4-16,55.0,44.1,38.0,33.0,30.6,29.0,73,59,39,0.00,40.00,6,1,11,0.00
2014-4-19,-200.0,0.0,200.0,-99.9,-99.9,-99.9,0,0,100,0.00,40.00,8,8,17,0.00
2014-4-21,67.0,54.1,43.0,44.0,39.8,34.0,93,63,31,0.00,40.00,16,8,24,0.01
2014-4-22,50.0,44.4,41.0,42.0,33.1,27.0,97,66,40,0.00,40.00,16,8,25,0.01
2014-4-23,53.0,46.9,39.0,42.0,38.2,29.0,82,71,49,0.00,40.00,15,8,27,0.00
2014-5-3,-200.0,0.0,200.0,-99.9,-99.9,-99.9,0,0,100,0.00,40.00,0,0,0,0.00
2014-5-5,57.0,50.0,41.0,34.0,32.3,30.0,74,51,35,0.00,40.00,17,7,25,0.00
2014-5-6,57.0,45.5,31.0,37.0,33.0,29.0,91,65,39,0.00,40.00,19,4,30,0.00
2014-5-16,72.0,64.4,49.0,40.0,35.3,30.0,63,36,21,0.00,40.00,16,10,25,0.00
2014-5-17,68.0,54.4,40.0,45.0,36.5,-99.9,82,55,30,0.00,40.00,11,6,20,0.00
2014-5-24,-200.0,0.0,200.0,-99.9,-99.9,-99.9,0,0,100,0.00,40.00,11,11,17,0.00
2014-5-26,68.0,60.5,51.0,41.0,37.5,33.0,62,44,26,0.00,40.00,10,6,23,0.00
2014-5-27,64.0,53.0,41.0,40.0,36.7,32.0,85,56,34,0.00,40.00,12,6,20,0.00
2014-5-28,58.0,48.6,37.0,38.0,35.1,30.0,85,61,41,0.00,40.00,17,6,27,0.00
2014-5-29,67.0,51.8,35.0,44.0,33.6,27.0,88,55,22,0.00,40.00,8,4,13,0.00
2014-5-30,76.0,57.9,38.0,46.0,39.3,34.0,87,55,21,0.00,40.00,13,5,20,0.00
2014-5-31,74.0,61.2,49.0,45.0,40.6,-99.9,80,50,27,0.00,40.00,15,7,23,0.00
2014-6-1,78.0,61.4,44.0,46.0,40.5,28.0,90,52,15,0.00,40.00,12,5,21,0.00
2014-6-2,80.0,62.1,44.0,46.0,39.6,35.0,71,46,22,0.00,40.00,17,7,25,0.00
2014-6-3,74.0,60.2,44.0,48.0,37.7,26.0,89,50,17,0.00,40.00,17,7,26,0.00
2014-6-4,79.0,60.1,38.0,39.0,32.1,25.0,82,41,16,0.00,40.00,16,6,26,0.00
2014-6-5,77.0,60.9,40.0,39.0,34.2,28.0,77,41,21,0.00,40.00,14,6,23,0.00
2014-6-6,77.0,61.9,40.0,39.0,32.6,23.0,77,38,15,0.00,40.00,14,6,24,0.00
2014-6-7,76.0,62.0,45.0,44.0,38.3,-99.9,73,44,26,0.00,40.00,14,8,24,0.00
2014-6-8,79.0,63.5,45.0,47.0,42.3,39.0,87,50,24,0.00,40.00,15,6,25,0.00
2014-6-9,77.0,63.3,48.0,48.0,39.1,25.0,84,47,17,0.00,40.00,17,8,26,0.00
2014-6-10,73.0,58.6,42.0,41.0,36.6,30.0,83,48,21,0.00,40.00,20,9,31,0.00
2014-6-11,78.0,60.3,41.0,42.0,37.5,27.0,87,49,15,0.00,40.00,9,4,14,0.00
2014-6-12,71.0,59.6,48.0,46.0,39.6,31.0,73,50,22,0.00,40.00,20,10,32,0.00
2014-6-13,58.0,53.3,47.0,45.0,40.1,36.0,70,60,50,0.00,40.00,15,8,24,0.00
2014-6-14,61.0,49.5,41.0,39.0,35.2,-99.9,85,62,41,0.00,40.00,20,8,29,0.00
2014-6-15,62.0,52.4,42.0,43.0,39.2,36.0,88,62,41,0.00,40.00,14,6,20,0.00
2014-6-16,58.0,49.2,41.0,40.0,35.2,32.0,77,59,40,0.00,40.00,16,8,26,0.00
2014-6-17,61.0,47.9,33.0,42.0,37.6,31.0,90,68,47,0.00,40.00,20,8,30,0.00
2014-6-18,73.0,56.3,37.0,47.0,40.7,33.0,89,59,31,0.00,40.00,15,6,22,0.00
2014-6-19,81.0,62.2,42.0,46.0,41.4,36.0,81,50,24,0.00,40.00,12,5,22,0.00
2014-6-20,72.0,61.7,52.0,48.0,42.5,36.0,74,51,29,0.00,40.00,16,7,25,0.00
2014-6-21,74.0,57.1,39.0,42.0,34.2,-99.9,84,48,19,0.00,40.00,7,4,13,0.00
2014-6-22,81.0,62.1,42.0,42.0,35.5,23.0,71,42,12,0.00,40.00,6,4,11,0.00
2014-6-23,84.0,64.6,49.0,51.0,41.1,33.0,61,45,17,0.00,40.00,16,6,25,0.00
2014-6-24,74.0,63.6,51.0,53.0,48.7,45.0,94,62,36,0.00,40.00,12,6,21,0.00
2014-6-25,66.0,58.8,49.0,56.0,49.8,44.0,96,73,50,0.00,40.00,7,4,10,0.00
2014-6-26,72.0,62.9,56.0,56.0,51.6,46.0,96,69,41,0.00,40.00,12,6,22,0.01
2014-6-27,72.0,62.3,54.0,55.0,49.8,45.0,93,65,41,0.00,40.00,16,9,28,0.00
2014-6-28,72.0,60.4,52.0,47.0,41.6,-99.9,77,54,33,0.00,40.00,12,6,24,0.00
2014-6-29,72.0,59.8,47.0,45.0,43.1,41.0,82,56,34,0.00,40.00,15,6,22,0.00
2014-6-30,83.0,64.3,41.0,47.0,41.7,33.0,90,50,16,0.00,40.00,11,5,19,0.00
2014-7-1,93.0,69.5,50.0,52.0,43.8,38.0,68,42,18,0.00,40.00,14,5,21,0.00
2014-7-2,83.0,73.2,63.0,57.0,52.3,41.0,60,48,32,0.00,40.00,15,7,25,0.00
2014-7-3,82.0,68.3,52.0,54.0,48.9,42.0,84,53,25,0.00,40.00,13,5,21,0.00
2014-7-4,86.0,65.4,50.0,49.0,45.0,36.0,83,53,16,0.00,40.00,9,4,14,0.00
2014-7-5,89.0,70.7,53.0,48.0,39.4,-99.9,70,37,14,0.00,40.00,8,3,17,0.00
2014-7-6,90.0,71.9,53.0,50.0,45.2,38.0,64,41,19,0.00,40.00,13,5,21,0.00
2014-7-7,91.0,74.1,56.0,56.0,48.9,42.0,74,45,18,0.00,40.00,6,4,14,0.00
2014-7-8,95.0,77.3,58.0,58.0,52.0,43.0,74,46,17,0.00,40.00,12,5,18,0.00
2014-7-9,91.0,76.7,65.0,54.0,44.5,34.0,57,35,13,0.00,40.00,16,6,25,0.00
2014-7-10,92.0,76.4,53.0,48.0,35.2,28.0,53,26,10,0.00,40.00,10,5,15,0.00
2014-7-11,91.0,73.3,51.0,48.0,37.5,25.0,44,28,15,0.00,40.00,8,4,15,0.00
2014-7-12,95.0,73.6,55.0,53.0,42.8,36.0,64,37,12,0.00,40.00,6,4,13,0.00
2014-7-13,90.0,74.2,62.0,55.0,49.5,44.0,60,43,21,0.00,40.00,12,6,21,0.00
2014-7-14,91.0,73.7,55.0,55.0,50.4,46.0,80,48,23,0.00,40.00,14,6,22,0.00
2014-7-15,96.0,77.3,57.0,52.0,47.0,40.0,68,38,14,0.00,40.00,10,4,16,0.00
2014-7-16,97.0,80.2,61.0,52.0,44.7,36.0,53,31,16,0.00,40.00,13,6,20,0.00
2014-7-17,86.0,71.4,55.0,48.0,41.2,33.0,53,36,18,0.00,40.00,18,7,26,0.00
2014-7-18,87.0,66.8,47.0,49.0,38.5,29.0,68,40,13,0.00,40.00,15,7,25,0.00
2014-7-19,86.0,71.3,55.0,52.0,46.9,40.0,76,45,20,0.00,40.00,18,8,30,0.00
2014-7-20,81.0,68.0,57.0,52.0,47.7,34.0,74,51,20,0.00,40.00,12,6,20,0.00
2014-7-21,76.0,64.6,52.0,50.0,44.8,39.0,80,52,26,0.00,40.00,7,3,12,0.00
2014-7-22,78.0,66.5,60.0,59.0,54.0,47.0,88,65,42,0.00,40.00,10,4,17,0.00
2014-7-23,65.0,58.4,49.0,57.0,51.1,38.0,95,77,47,0.00,40.00,12,5,24,0.00
2014-7-24,69.0,58.1,47.0,45.0,41.6,38.0,76,55,40,0.00,40.00,15,8,23,0.00
2014-7-25,81.0,63.7,42.0,48.0,41.6,33.0,93,51,19,0.00,40.00,6,4,20,0.00
2014-7-26,88.0,69.0,47.0,48.0,39.5,24.0,83,41,9,0.00,40.00,6,4,13,0.00
2014-7-27,86.0,70.3,53.0,47.0,43.7,40.0,67,42,20,0.00,40.00,8,4,13,0.00
2014-7-28,96.0,77.1,57.0,54.0,44.6,39.0,61,35,13,0.00,40.00,11,5,16,0.00
2014-7-29,93.0,78.4,61.0,52.0,44.9,32.0,61,34,12,0.00,40.00,15,5,25,0.00
2014-7-30,97.0,79.0,59.0,50.0,44.6,36.0,63,33,13,0.00,40.00,10,4,21,0.00
2014-7-31,97.0,77.8,60.0,50.0,42.3,39.0,55,30,14,0.00,40.00,13,5,23,0.00
2014-8-1,93.0,80.6,69.0,55.0,49.2,45.0,54,34,19,0.00,40.00,17,6,26,0.00
2014-8-2,92.0,76.5,61.0,59.0,52.1,46.0,67,45,20,0.00,40.00,13,5,20,0.00
2014-8-3,90.0,74.8,59.0,56.0,50.5,43.0,76,47,21,0.00,40.00,13,5,20,0.00
2014-8-4,94.0,75.7,60.0,54.0,49.2,44.0,63,42,18,0.00,40.00,15,6,24,0.00
2014-8-5,88.0,74.5,60.0,53.0,41.0,25.0,64,34,10,0.00,40.00,17,8,25,0.00
2014-8-6,85.0,67.2,48.0,48.0,40.4,36.0,62,40,19,0.00,40.00,16,8,25,0.00
2014-8-7,84.0,75.5,63.0,49.0,41.0,32.0,61,30,16,0.00,40.00,16,8,24,0.00
2014-8-8,81.0,66.5,52.0,45.0,40.5,35.0,71,42,19,0.00,40.00,14,6,22,0.00
2014-8-9,87.0,67.3,47.0,43.0,36.6,29.0,76,38,13,0.00,40.00,8,4,15,0.00
2014-8-10,94.0,74.7,54.0,44.0,39.8,30.0,56,32,14,0.00,40.00,12,5,22,0.00
2014-8-11,95.0,77.5,63.0,61.0,52.0,44.0,74,44,17,0.00,40.00,19,6,38,0.00
2014-8-12,81.0,67.0,59.0,60.0,56.0,50.0,92,69,33,0.00,40.00,19,5,29,0.04
2014-8-13,76.0,62.5,56.0,59.0,55.4,47.0,97,79,42,0.00,40.00,17,5,33,0.02
2014-8-14,72.0,61.7,55.0,57.0,53.8,50.0,92,76,46,0.00,40.00,10,4,19,0.00
2014-8-15,78.0,64.8,55.0,57.0,54.3,51.0,94,71,39,0.00,40.00,6,3,14,0.00
2014-8-16,85.0,68.3,53.0,57.0,51.5,45.0,91,59,26,0.00,40.00,9,4,14,0.00
2014-8-17,88.0,71.8,55.0,55.0,50.8,44.0,87,52,22,0.00,40.00,12,5,18,0.00
2014-8-18,89.0,74.3,56.0,57.0,51.0,44.0,85,49,21,0.00,40.00,8,4,16,0.00
2014-8-19,84.0,69.4,60.0,58.0,53.8,48.0,83,61,28,0.00,40.00,19,7,29,0.00
2014-8-20,79.0,66.8,55.0,57.0,47.0,37.0,87,53,24,0.00,40.00,15,7,23,0.00
2014-8-21,78.0,63.1,45.0,45.0,39.3,25.0,82,47,16,0.00,40.00,14,5,22,0.00
2014-8-22,75.0,61.4,47.0,48.0,43.3,38.0,81,54,27,0.00,40.00,12,5,19,0.00
2014-8-23,76.0,62.0,48.0,49.0,45.0,42.0,85,55,32,0.00,40.00,6,4,15,0.00
2014-8-24,79.0,63.7,49.0,47.0,43.7,41.0,76,51,25,0.00,40.00,15,4,26,0.00
2014-8-25,79.0,61.2,47.0,49.0,45.6,41.0,89,61,25,0.00,40.00,9,4,17,0.00
2014-8-26,84.0,63.5,49.0,48.0,42.6,38.0,74,50,20,0.00,40.00,5,3,15,0.00
2014-8-27,90.0,81.6,67.0,53.0,48.9,45.0,59,33,23,0.00,40.00,14,6,20,0.00
2014-8-28,85.0,70.6,55.0,54.0,50.5,44.0,85,52,24,0.00,40.00,13,5,21,0.00
2014-8-29,83.0,65.1,50.0,51.0,47.4,43.0,86,57,24,0.00,40.00,18,5,25,0.00
2014-8-30,68.0,61.8,56.0,53.0,46.4,43.0,70,55,46,0.00,40.00,18,9,30,0.00
2014-8-31,70.0,59.4,49.0,48.0,43.8,40.0,87,59,34,0.00,40.00,12,5,19,0.00
2014-9-1,79.0,61.9,44.0,50.0,43.9,40.0,86,56,28,0.00,40.00,9,4,13,0.00
2014-9-2,80.0,63.9,47.0,50.0,43.7,37.0,86,52,22,0.00,40.00,20,8,30,0.00
2014-9-3,70.0,56.5,42.0,41.0,37.2,33.0,82,51,26,0.00,40.00,14,6,21,0.00
2014-9-4,74.0,57.6,41.0,43.0,38.7,36.0,82,53,26,0.00,40.00,12,5,23,0.00
2014-9-5,79.0,60.1,43.0,41.0,37.1,29.0,76,47,16,0.00,40.00,7,4,15,0.00
2014-9-6,84.0,62.5,45.0,38.0,34.0,31.0,63,37,15,0.00,40.00,10,5,15,0.00
2014-9-7,85.0,67.9,48.0,42.0,34.7,26.0,66,33,12,0.00,40.00,9,4,13,0.00
2014-9-8,85.0,65.2,47.0,48.0,36.8,28.0,67,39,14,0.00,40.00,16,7,23,0.00
2014-9-9,71.0,59.4,47.0,49.0,43.6,35.0,89,59,28,0.00,40.00,15,7,23,0.00
2014-9-10,73.0,57.9,43.0,45.0,40.7,30.0,89,56,30,0.00,40.00,9,5,17,0.00
2014-9-11,65.0,53.8,40.0,33.0,28.3,23.0,68,39,22,0.00,40.00,11,6,20,0.00
2014-9-12,75.0,54.2,37.0,33.0,28.6,25.0,73,42,16,0.00,40.00,11,5,20,0.00
2014-9-13,76.0,56.7,39.0,33.0,27.6,22.0,63,35,13,0.00,40.00,11,4,15,0.00
2014-9-14,81.0,59.9,41.0,34.0,29.6,27.0,61,35,14,0.00,40.00,9,5,16,0.00
2014-9-15,82.0,63.1,45.0,38.0,34.0,32.0,59,36,16,0.00,40.00,7,4,11,0.00
2014-9-16,86.0,66.7,51.0,44.0,38.0,33.0,58,37,17,0.00,40.00,14,5,23,0.00
2014-9-17,82.0,68.0,56.0,47.0,41.9,34.0,62,41,19,0.00,40.00,14,5,21,0.00
2014-9-18,73.0,64.3,56.0,52.0,47.8,41.0,68,55,41,0.00,40.00,18,7,28,0.00
2014-9-19,79.0,62.5,49.0,51.0,47.8,45.0,91,62,30,0.00,40.00,8,4,13,0.00
2014-9-20,84.0,64.5,49.0,50.0,46.3,44.0,82,54,26,0.00,40.00,10,5,18,0.00
2014-9-21,85.0,67.5,52.0,54.0,47.1,45.0,78,51,25,0.00,40.00,8,4,12,0.00
2014-9-22,83.0,70.3,58.0,54.0,48.5,44.0,74,49,25,0.00,40.00,10,4,22,0.00
2014-9-23,79.0,66.5,57.0,52.0,48.2,44.0,75,53,30,0.00,40.00,14,4,21,0.00
2014-9-24,63.0,59.3,56.0,54.0,51.2,47.0,90,75,60,0.00,40.00,10,5,19,0.00
2014-9-25,65.0,57.2,51.0,53.0,47.4,41.0,92,71,43,0.00,40.00,15,6,23,0.01
2014-9-26,67.0,55.6,44.0,47.0,43.3,38.0,87,66,35,0.00,40.00,8,4,14,0.00
2014-9-27,68.0,54.5,44.0,48.0,44.2,41.0,94,69,41,0.00,40.00,10,4,20,0.00
2014-9-28,70.0,57.5,47.0,48.0,44.6,43.0,88,64,38,0.00,40.00,6,3,15,0.00
2014-9-29,73.0,57.6,45.0,50.0,43.4,37.0,88,63,27,0.00,40.00,14,6,24,0.00
2014-9-30,61.0,53.0,41.0,43.0,39.2,36.0,84,60,41,0.00,40.00,16,8,27,0.00
2014-10-1,64.0,51.1,36.0,40.0,36.7,32.0,92,62,31,0.00,40.00,6,3,11,0.00
2014-10-2,68.0,59.8,47.0,36.0,32.4,27.0,57,37,23,0.00,40.00,6,4,12,0.00
2014-10-3,73.0,54.7,38.0,38.0,34.2,31.0,77,49,24,0.00,40.00,6,4,9,0.00
2014-10-4,83.0,60.3,40.0,41.0,35.5,31.0,77,44,15,0.00,40.00,6,4,8,0.00
2014-10-5,83.0,63.8,45.0,49.0,37.9,33.0,63,42,17,0.00,40.00,6,3,10,0.00
2014-10-6,85.0,65.1,48.0,48.0,43.4,41.0,77,48,21,0.00,40.00,6,3,10,0.00
2014-10-7,83.0,63.5,47.0,46.0,40.5,37.0,71,46,19,0.00,40.00,8,4,12,0.00
2014-10-8,76.0,59.3,47.0,44.0,37.3,23.0,75,48,14,0.00,40.00,8,4,14,0.00
2014-10-9,75.0,55.7,40.0,39.0,33.9,29.0,74,47,18,0.00,40.00,6,3,10,0.00
2014-10-10,75.0,58.6,40.0,39.0,35.8,31.0,70,45,24,0.00,40.00,8,4,13,0.00
2014-10-11,67.0,57.8,51.0,51.0,40.9,35.0,75,53,31,0.00,40.00,20,9,31,0.00
2014-10-12,66.0,53.2,42.0,40.0,35.4,30.0,81,54,27,0.00,40.00,9,5,15,0.00
2014-10-13,71.0,52.5,37.0,38.0,32.8,28.0,73,50,27,0.00,40.00,5,4,9,0.00
2014-10-14,61.0,55.1,48.0,47.0,40.7,25.0,93,61,25,0.00,40.00,11,5,16,0.00
2014-10-15,58.0,51.0,46.0,47.0,40.0,34.0,97,69,41,0.00,40.00,22,10,34,0.00
2014-10-16,64.0,51.0,40.0,40.0,38.1,36.0,85,63,36,0.00,40.00,10,3,20,0.00
2014-10-17,59.0,50.6,44.0,50.0,43.6,37.0,91,77,53,0.00,40.00,5,3,9,0.00
2014-10-18,72.0,58.9,50.0,48.0,45.8,43.0,87,63,34,0.00,40.00,9,4,14,0.00
2014-10-19,77.0,56.6,43.0,47.0,42.6,37.0,92,65,24,0.00,40.00,11,5,19,0.00
2014-10-20,59.0,50.5,45.0,51.0,45.4,41.0,94,82,67,0.00,40.00,10,4,14,0.01
2014-10-21,58.0,49.1,42.0,44.0,38.5,36.0,90,68,46,0.00,40.00,13,7,22,0.01
2014-10-22,65.0,57.3,47.0,45.0,40.5,37.0,71,53,41,0.00,40.00,21,14,33,0.00
2014-10-23,57.0,52.0,45.0,50.0,44.4,35.0,94,75,55,0.00,40.00,15,8,25,0.01
2014-10-24,48.0,46.2,44.0,47.0,42.9,39.0,97,88,76,0.00,40.00,5,3,9,0.01
2014-10-25,66.0,51.9,45.0,49.0,42.8,35.0,99,75,35,0.00,40.00,24,10,42,0.00
2014-10-26,52.0,44.7,39.0,40.0,34.9,33.0,83,69,49,0.00,40.00,15,9,24,0.00
2014-10-27,56.0,43.9,34.0,40.0,34.8,30.0,91,72,39,0.00,40.00,6,3,12,0.00
2014-10-28,61.0,50.6,37.0,51.0,40.5,32.0,87,69,41,0.00,40.00,14,7,21,0.00
2014-10-29,60.0,53.3,44.0,47.0,42.0,37.0,85,66,46,0.00,40.00,12,6,20,0.00
2014-10-30,56.0,49.9,46.0,51.0,47.6,44.0,98,91,79,0.00,40.00,7,3,13,0.00
2014-10-31,51.0,48.1,42.0,48.0,43.2,37.0,98,84,59,0.00,40.00,14,4,23,0.01
2014-11-1,49.0,41.9,35.0,39.0,34.9,31.0,94,77,58,0.00,40.00,21,8,31,0.01
2014-11-2,54.0,43.9,32.0,42.0,35.8,30.0,90,74,50,0.00,40.00,8,5,14,0.00
2014-11-3,57.0,50.1,44.0,44.0,41.6,39.0,87,73,58,0.00,40.00,11,7,17,0.00
2014-11-4,62.0,53.4,48.0,48.0,44.9,41.0,88,73,57,0.00,40.00,16,8,24,0.01
2014-11-5,69.0,54.6,43.0,51.0,46.6,42.0,94,75,46,0.00,40.00,12,4,18,0.00
2014-11-6,67.0,57.7,46.0,50.0,42.1,36.0,89,57,41,0.00,40.00,22,11,36,0.00
2014-11-7,53.0,41.6,34.0,37.0,34.6,31.0,91,76,50,0.00,40.00,5,4,9,0.00
2014-11-8,54.0,33.1,31.0,41.0,28.8,30.0,94,82,58,0.00,40.00,5,4,8,0.00
2014-11-9,-200.0,0.0,200.0,-99.9,0.0,200.0,85,57,85,0.00,40.00,11,6,19,0.00
2014-11-10,48.0,38.1,31.0,27.0,24.2,21.0,69,57,41,0.00,40.00,7,5,13,0.00
2014-11-11,34.0,27.3,20.0,24.0,15.8,4.0,85,62,46,0.00,40.00,13,7,24,0.00
2014-11-12,28.0,20.1,13.0,9.0,5.7,4.0,68,53,41,0.00,40.00,10,6,15,0.00
2014-11-13,23.0,19.1,15.0,17.0,14.9,8.0,90,83,52,0.00,40.00,6,4,8,0.02
2014-11-14,28.0,16.8,0.0,24.0,13.0,-6.0,89,85,76,0.00,40.00,7,3,8,0.01
2014-11-15,15.0,4.0,-4.0,12.0,-0.5,-10.0,85,79,76,0.00,40.00,5,2,6,0.00
2014-11-16,14.0,1.7,-11.0,10.0,-3.8,-18.0,83,77,70,0.00,40.00,5,2,7,0.00
2014-11-17,19.0,3.1,-9.0,12.0,-2.5,-16.0,84,76,71,0.00,40.00,6,2,7,0.00
2014-11-18,17.0,8.2,-5.0,14.0,3.4,-11.0,87,80,74,0.00,40.00,4,2,5,0.00
2014-11-19,26.0,20.0,13.0,22.0,15.5,9.0,87,82,74,0.00,40.00,4,2,6,0.00
2014-11-20,32.0,26.7,18.0,28.0,23.0,16.0,93,85,74,0.00,40.00,4,2,7,0.00
2014-11-21,47.0,36.4,21.0,43.0,31.9,19.0,94,84,67,0.00,40.00,22,10,37,0.00
2014-11-22,45.0,39.7,34.0,44.0,34.4,29.0,95,80,65,0.00,40.00,15,8,28,0.01
2014-11-23,52.0,42.0,34.0,34.0,30.9,29.0,85,65,41,0.00,40.00,20,10,32,0.01
2014-11-24,52.0,43.2,33.0,42.0,33.5,30.0,88,70,46,0.00,40.00,15,8,22,0.00
2014-11-25,60.0,55.3,50.0,47.0,44.2,41.0,75,66,59,0.00,40.00,18,12,29,0.00
2014-11-26,61.0,49.4,41.0,41.0,37.9,34.0,83,65,41,0.00,40.00,12,6,18,0.00
2014-11-27,56.0,52.3,50.0,47.0,39.7,32.0,83,62,43,0.00,40.00,12,7,19,0.00
2014-11-28,53.0,49.6,45.0,43.0,38.8,36.0,83,66,54,0.00,40.00,20,13,31,0.00
2014-11-29,44.0,35.0,26.0,39.0,26.6,21.0,86,70,55,0.00,40.00,17,10,27,0.00
2014-11-30,26.0,21.5,16.0,21.0,14.9,8.0,88,75,58,0.00,40.00,7,5,12,0.00
2014-12-1,27.0,20.9,14.0,21.0,13.9,7.0,79,74,67,0.00,40.00,4,2,7,0.00
2014-12-2,27.0,23.7,21.0,24.0,21.6,19.0,95,91,77,0.00,40.00,6,4,12,0.00
2014-12-3,26.0,23.4,21.0,24.0,21.2,19.0,92,91,89,0.00,40.00,6,3,9,0.00
2014-12-4,31.0,28.4,26.0,29.0,26.4,24.0,95,92,89,0.00,40.00,4,2,5,0.01
2014-12-5,31.0,29.7,28.0,30.0,29.1,27.0,98,97,95,0.00,40.00,5,2,8,0.00
2014-12-6,50.0,35.9,28.0,38.0,31.9,27.0,98,85,62,0.00,40.00,12,4,18,0.00
2014-12-7,35.0,32.3,29.0,35.0,31.4,27.0,99,96,93,0.00,40.00,6,2,7,0.00
2014-12-8,36.0,33.8,32.0,36.0,33.7,32.0,99,99,99,0.00,40.00,5,2,8,0.00
2014-12-9,60.0,46.7,34.0,46.0,39.7,34.0,100,77,58,0.00,40.00,15,7,24,0.00
2014-12-10,59.0,52.0,47.0,45.0,37.3,35.0,74,54,39,0.00,40.00,23,15,38,0.00
2014-12-11,58.0,50.3,45.0,42.0,37.4,35.0,82,60,44,0.00,40.00,27,14,43,0.00
2014-12-12,46.0,39.8,31.0,38.0,35.0,29.0,95,82,70,0.00,40.00,7,3,13,0.00
2014-12-13,47.0,34.7,29.0,31.0,28.8,27.0,91,80,51,0.00,40.00,5,3,8,0.00
2014-12-14,39.0,30.7,24.0,31.0,27.7,23.0,97,88,71,0.00,40.00,7,4,10,0.00
2014-12-15,33.0,30.0,27.0,30.0,28.8,27.0,97,95,88,0.00,40.00,5,3,9,0.00
2014-12-16,34.0,31.3,29.0,33.0,30.1,28.0,99,96,89,0.00,40.00,5,2,8,0.00
2014-12-17,35.0,32.8,30.0,33.0,32.1,29.0,99,96,92,0.00,40.00,4,2,6,0.00
2014-12-18,50.0,37.6,28.0,39.0,32.4,28.0,99,83,57,0.00,40.00,14,6,25,0.00
2014-12-19,48.0,42.2,38.0,38.0,33.6,28.0,88,72,49,0.00,40.00,18,7,26,0.00
2014-12-20,51.0,41.3,40.0,47.0,36.1,35.0,90,79,70,0.00,40.00,18,11,29,0.01
2014-12-21,52.0,46.6,42.0,48.0,43.7,40.0,96,89,79,0.00,40.00,15,6,24,0.01
2014-12-22,50.0,43.5,37.0,40.0,36.5,31.0,94,77,52,0.00,40.00,12,4,18,0.01
2014-12-23,50.0,42.0,36.0,41.0,36.9,33.0,92,82,67,0.00,40.00,6,3,14,0.00
2014-12-24,46.0,37.8,29.0,40.0,32.7,25.0,95,82,62,0.00,40.00,20,10,31,0.01
2014-12-25,43.0,35.7,30.0,31.0,28.4,25.0,87,75,55,0.00,40.00,13,5,19,0.01
2014-12-26,43.0,32.4,25.0,31.0,26.8,23.0,93,80,50,0.00,40.00,6,3,9,0.00
2014-12-27,43.0,33.9,26.0,32.0,27.4,23.0,88,76,59,0.00,40.00,14,6,22,0.00
2014-12-28,42.0,35.1,31.0,33.0,28.0,23.0,91,75,50,0.00,40.00,9,4,16,0.00
2014-12-29,31.0,25.3,16.0,30.0,20.5,5.0,98,82,60,0.00,40.00,12,6,22,0.00
2014-12-30,18.0,11.4,4.0,7.0,1.8,-2.0,75,64,48,0.00,40.00,12,5,16,0.00
2014-12-31,17.0,7.7,1.0,7.0,0.8,-5.0,82,73,61,0.00,40.00,7,4,10,0.00
2015-1-1,23.0,12.8,6.0,11.0,5.9,1.0,82,73,58,0.00,40.00,6,3,8,0.00
2015-1-2,34.0,21.7,11.0,26.0,14.4,6.0,83,73,57,0.00,40.00,7,4,11,0.00